Location: Gadern
(49.5873°N, 8.8138°E)
Time: 16:21:23
(UTC+00:00)

Cosmos 1151 Rocket - Pass Details

Date: 19 May 2025
Orbit: 586 x 607 km, 82.5° (Epoch: 17 June)

Event Time Altitude Azimuth Distance (km) Brightness Sun altitude
Exits shadow 22:19:32 26° 106° (ESE) 1,170 4.2 -19.1°
Maximum altitude 22:20:13 27° 89° (E) 1,134 4.2 -19.1°
Drops below altitude 10° 22:23:48 10° 31° (NNE) 1,921 6.2 -19.3°
Sets 22:26:14 0° 20° (NNE) 2,827 7.4 -19.4°
